Location: Asar Burnu
(36.5203°N, 30.5523°E)
Time: 10:32:34
(UTC+00:00)

Cosmos 2221 - Pass Details

Date: 04 August 2024
Orbit: 580 x 600 km, 82.5° (Epoch: 14 September)

Event Time Altitude Azimuth Distance (km) Brightness Sun altitude
Rises 20:07:10 0° 354° (N) 2,855 6.9 -29.9°
Reaches altitude 10° 20:09:24 10° 356° (N) 1,951 5.8 -30.1°
Enters shadow 20:11:39 30° 1° (N) 1,081 4.2 -30.3°
